Location: �terpigny
(49.8910°N, 2.9249°E)
Time: 11:38:06
(UTC+00:00)

RS-44 - Pass Details

Date: 01 July 2022
Orbit: 1175 x 1510 km, 82.5° (Epoch: 09 August)

Event Time Altitude Azimuth Distance (km) Brightness Sun altitude
Rises 21:26:06 0° 217° (SW) 4,368 ? -10.2°
Reaches altitude 10° 21:29:01 10° 224° (SW) 3,444 ? -10.4°
Maximum altitude 21:36:47 42° 293° (WNW) 1,958 ? -11.1°
Drops below altitude 10° 21:45:03 10° 3° (N) 3,652 ? -11.8°
Sets 21:48:16 0° 10° (N) 4,654 ? -12.0°
